Regional Weather Roundup
Issued by NWS

Home | Current Version | Previous Version | Text Only | Print | Product List | Glossary Off
Versions: 1 2 3 4 5 6 7 8 9 10 11 12 13 14 15 16 17 18 19 20 21 22 23 24 25 26 27

000
ASUS45 KTFX 292310
RWRMT
MONTANA REGIONAL WEATHER ROUNDUP
NATIONAL WEATHER SERVICE GREAT FALLS MT
500 PM MDT WED MAR 29 2017

NOTE: "FAIR" INDICATES FEW OR NO CLOUDS BELOW 12000 FEET WITH NO
SIGNIFICANT WEATHER AND/OR OBSTRUCTIONS TO VISIBILITY.

MTZ001>007-043-300000-
WEST OF THE DIVIDE

CITY           SKY/WX    TMP DP  RH WIND       PRES   REMARKS
KALISPELL      CLOUDY    45  41  86 S9        29.88F
MISSOULA       CLOUDY    49  42  77 S5        29.93S
BUTTE          LGT RAIN  51  33  50 SW16G22   29.93R
MULLAN PASS    MIX PCPN  32  32 100 S9        29.88S VSB 1/4 WCI  24
ANACONDA         N/A     48  36  61 S14G21    29.93R
DEER LODGE       N/A     54  36  50 SW3G20    29.92R
EUREKA           N/A     46  36  66 SE17      29.85S
HAMILTON         N/A     48  39  71 S10       29.95S
PLAINS           N/A     52  39  61 NW1       29.91F
RONAN            N/A     50  40  68 SE6       29.95S
THOMPSON FALLS   N/A     49  41  74 SW3       29.95
$$

MTZ008-052>055-300000-
SOUTHWEST MONTANA

CITY           SKY/WX    TMP DP  RH WIND       PRES   REMARKS
BOZEMAN        CLOUDY    56  33  42 CALM      29.89F
DILLON         CLOUDY    53  32  44 SW18G28   29.94S
W YELLOWSTONE  CLOUDY    37  30  75 SW10G18   30.09F WCI  30
ENNIS          MOSUNNY   52  30  43 S29G36    30.01F
$$

MTZ009-010-012-014-046-048-049-054-300000-
EAST SLOPES AND CENTRAL MONTANA

CITY           SKY/WX    TMP DP  RH WIND       PRES   REMARKS
CUT BANK       PTSUNNY   52  30  43 SW24G30   29.77F
GREAT FALLS    MOSUNNY   58  33  39 SW23G36   29.81F
MALMSTROM AFB  MOSUNNY   57  32  39 SW22G28   29.82F
HELENA         CLOUDY    57  35  43 VRB3      29.86F
AUGUSTA          N/A     51  30  44 SW21      29.80F
BOWMANS CRNR   PTSUNNY   51  34  53 SW28      29.80F
CHOTEAU          N/A     55  30  38 W12       29.80F
CONRAD           N/A     57  35  43 SW9       29.82F
FAIRFIELD      PTSUNNY   57  29  34 SW18      29.79F
POWER          PTSUNNY   53  33  46 SW23      29.79F
RAYNESFORD     PTSUNNY   55  32  41 SW17G23   29.83F
$$

MTZ011-013-016-021-045-047-050-051-300000-
NORTH CENTRAL MONTANA

CITY           SKY/WX    TMP DP  RH WIND       PRES   REMARKS
HAVRE          CLOUDY    58  30  34 W13       29.80F
LEWISTOWN      CLOUDY    54  30  40 W17       29.85F
N BAR RANCH    PTSUNNY   55  27  33 SW14G20   29.87F
CHINOOK          N/A     59  28  31 SW3       29.81F
DENTON         PTSUNNY   55  31  39 W3        29.79F
FORT BENTON      N/A     59  32  36 MISG      29.82F
GEYSER         PTSUNNY   53  31  42 W16G25    29.82F
GRASS RANGE    PTSUNNY   57  28  32 W17G23    29.81F
JUDITH GAP     PTSUNNY   50  31  48 W21G31    29.88F
STANFORD       PTSUNNY   53  31  41 W16       29.84F
WINIFRED       PTSUNNY   56  26  31 SW9       29.82F
$$

MTZ017>020-022>027-061-062-300000-
NORTHEAST MONTANA

CITY           SKY/WX    TMP DP  RH WIND       PRES   REMARKS
GLASGOW        CLOUDY    60  27  28 SW9       29.85F
JORDAN           N/A     58  28  32 W8        29.87F
SIDNEY         SUNNY     62  29  28 W9        29.88F
WOLF POINT     CLOUDY    60  29  30 W10       29.87F
MALTA          SUNNY     59  28  31 SW8G17    29.83F
PLENTYWOOD       N/A     59  27  29 W16       29.84F
POPLAR           N/A     57  28  33 SW10      29.88F
SCOBEY           N/A     59  25  27 W15       29.84F
$$

MTZ028>42-056>058-300000-
SOUTHCENTRAL AND SOUTHEAST MONTANA

CITY           SKY/WX    TMP DP  RH WIND       PRES   REMARKS
BAKER          MOSUNNY   59  27  29 W12G29    29.92F
BILLINGS       CLOUDY    59  32  36 E3        29.86F
LIVINGSTON     CLOUDY    56  30  37 SW28G39   29.87F
MILES CITY     CLOUDY    58  28  32 W7        29.90F
BIG TIMBER     SUNNY     57  32  38 W26G33    29.90F
EKALAKA          N/A     57  26  30 W7        29.92F
FORSYTH          N/A     57  28  33 S3        29.89F
HARLOWTON      PTSUNNY   54  31  41 W17       29.87F
LAUREL           N/A     63  30  28 SE6       29.86F
$$

REGIONAL REPORTS...DAKOTAS

CITY           SKY/WX    TMP DP  RH WIND       PRES   REMARKS
WILLISTON      SUNNY     62  28  27 W13       29.87F
MINOT          CLOUDY    52  44  74 NW15      29.89S
DICKINSON      PTSUNNY   62  25  24 W17       29.87F
BEACH          PTSUNNY   59  28  31 W13       29.93F
TIOGA            N/A     59  32  36 W14       29.88F
WATFORD CITY     N/A     61  32  33 W15       29.87F
BISMARCK       CLOUDY    63  37  38 S12       29.94F
GRAND FORKS    MOSUNNY   61  44  53 S13       30.01F
FARGO          SUNNY     59  39  47 SE14      30.04F
BUFFALO SD       N/A     63  29  27 W12       29.86F
RAPID CITY     SUNNY     54  37  52 NE5       29.97S
$$

REGIONAL REPORTS...WYOMING/IDAHO/WASHINGTON

CITY           SKY/WX    TMP DP  RH WIND       PRES   REMARKS
GILLETTE       SUNNY     59  24  26 W5        29.93F
SHERIDAN       SUNNY     61  31  32 N5        29.89F
BUFFALO WY     SUNNY     59  26  28 E10       29.92F
CODY           SUNNY     56  26  31 W16G28    29.92F
YELLOWSTONE LA   N/A     34  28  79 VRB3      30.11S
IDAHO FALLS    CLOUDY    53  34  48 SW17G25   30.09F
SALMON         CLOUDY    48  41  76 N6        29.97S
BOISE          CLOUDY    60  38  43 E16       30.01F
SPOKANE        CLOUDY    50  45  83 SW14      29.85F
$$

REGIONAL REPORTS...ALBERTA

CITY           SKY/WX    TMP DP  RH WIND       PRES   REMARKS
EDMONTON       PTSUNNY   48  39  71 NE9       29.73F HAZE
CALGARY        MOSUNNY   50  27  40 S10G21    29.68F
LETHBRIDGE     PTSUNNY   54  28  37 S15G23    29.72F
MEDICINE HAT   CLOUDY    57  27  30 SW10      29.76F
WATERTON GATE    N/A     46  30  53 SW17G26     N/A
MILK RIVER       N/A     54  30  40 S16         N/A
ONEFOUR          N/A     54  30  40 SW9         N/A
$$

REGIONAL REPORTS...SASKATCHEWAN

CITY           SKY/WX    TMP DP  RH WIND       PRES   REMARKS
SWIFT CURRENT  SUNNY     55  19  24 W8        29.78F
REGINA         MOSUNNY   61  25  25 W16       29.78F
SASKATOON      MOSUNNY   52  37  58 NW9       29.80F
CYPRESS HILLS    N/A     48  21  34 SW8         N/A
VAL MARIE        N/A     57  23  26 W12G20      N/A
ROCKGLEN         N/A     55  23  28 W16G23      N/A
ASSINIBOIA       N/A     43  37  81 E6          N/A
$$




USA.gov is the U.S. government's official web portal to all federal, state and local government web resources and services.